Abbotsford, British Columbia

1:43 PM PST on February 23, 2017 (GMT -0800)
Abbotsford

Weather History for CYXX - October, 2012

Change the Weather History Date:

Monday, October 15, 2012

  Actual Average Record
Temperature  
Mean Temperature 54 °F -  
Max Temperature 59 °F 54 °F 70 °F (2015)
Min Temperature 49 °F 38 °F 32 °F (2008)
Degree Days  
Heating Degree Days 11    
Growing Degree Days 4 (Base 50)    
Moisture  
Dew Point 53 °F    
Average Humidity 95    
Maximum Humidity 100    
Minimum Humidity 77    
Precipitation  
Precipitation 0.43 in 0.25 in - ()
Sea Level Pressure  
Sea Level Pressure 29.79 in    
Wind  
Wind Speed 5 mph ()    
Max Wind Speed 13 mph    
Max Gust Speed 18 mph    
Visibility 4.3 miles    
Events Fog , Rain    
Averages and records for this station are not official NWS values.
T = Trace of Precipitation, MM = Missing Value Source: Averaged Metar Reports

Daily Weather History Graph

Daily Weather History Graph

Search for Another Location

Airport or City:

Trip Planner

Search our weather history database for the weather conditions in past years. The results will help you decide how hot, cold, wet, or windy it might be!

Date:

Astronomy

Oct. 15, 2012 Rise Set
Actual Time 7:31 AM PDT 6:18 PM PDT
Civil Twilight 6:59 AM PDT 6:50 PM PDT
Nautical Twilight 6:22 AM PDT 7:26 PM PDT
Astronomical Twilight 5:45 AM PDT 8:03 PM PDT
Moon 7:53 AM PDT (10/15) 6:13 PM PDT (10/15)
Length of Visible Light 11h 51m
Length of Day
10h 47m
New Moon, 0% of the Moon is Illuminated
Oct 15
New Moon
Oct 21
First Quarter
Oct 29
Full
Nov 6
Last Quarter
Nov 13
New

Hourly Weather History & Observations

Time (PDT) Temp. Dew Point Humidity Pressure Visibility Wind Dir Wind Speed Gust Speed Precip Events Conditions
12:00 AM 55.4 °F 55.4 °F 100% 29.86 in 8.0 mi SW 10.4 mph - N/A   Overcast
12:25 AM 55.4 °F 55.4 °F 100% 29.86 in 4.0 mi SW 6.9 mph - N/A Rain Light Rain Showers
1:00 AM 55.4 °F 53.6 °F 94% 29.86 in 7.0 mi SW 6.9 mph - N/A   Overcast
1:31 AM 55.4 °F 53.6 °F 94% 29.86 in 2.5 mi SW 5.8 mph - N/A   Overcast
1:50 AM 53.6 °F 53.6 °F 100% 29.87 in 1.0 mi WSW 6.9 mph - N/A   Overcast
2:00 AM 53.6 °F 53.6 °F 100% 29.88 in 0.5 mi WSW 4.6 mph - N/A Fog Fog
2:41 AM 53.6 °F 53.6 °F 100% 29.88 in 1.5 mi SW 6.9 mph - N/A   Overcast
3:00 AM 53.6 °F 53.6 °F 100% 29.88 in 4.0 mi SW 6.9 mph - N/A   Overcast
4:00 AM 51.8 °F 51.8 °F 100% 29.89 in 4.0 mi West 4.6 mph - N/A   Overcast
5:00 AM 49 °F 49 °F 100% 29.91 in 1 mi ENE 2.3 mph - -   Mist
5:00 AM 50.0 °F 50.0 °F 100% 29.91 in 1.2 mi East 3.5 mph - N/A   Mostly Cloudy
6:00 AM 51.8 °F 51.8 °F 100% 29.92 in 1.0 mi North 3.5 mph - N/A   Mostly Cloudy
6:16 AM 51.8 °F 51.8 °F 100% 29.92 in 0.6 mi Calm Calm - N/A   Mostly Cloudy
6:29 AM 51.8 °F 51.8 °F 100% 29.92 in 0.4 mi Calm Calm - N/A Fog Fog
6:44 AM 51.8 °F 51.8 °F 100% 29.92 in 0.2 mi Calm Calm - N/A Fog Fog
7:00 AM 50.0 °F 50.0 °F 100% 29.92 in 0.4 mi Calm Calm - N/A Fog Fog
7:51 AM 51.8 °F 51.8 °F 100% 29.92 in 0.5 mi WNW 2.3 mph - N/A Fog Fog
8:00 AM 51.8 °F 51.8 °F 100% 29.92 in 0.5 mi NW 2.3 mph - N/A Fog Fog
8:19 AM 51.8 °F 51.8 °F 100% 29.93 in 0.6 mi Calm Calm - N/A   Mostly Cloudy
9:00 AM 51.8 °F 51.8 °F 100% 29.92 in 1.0 mi Calm Calm - N/A   Mostly Cloudy
9:24 AM 51.8 °F 51.8 °F 100% 29.93 in 2.0 mi West 3.5 mph - N/A   Overcast
9:50 AM 53.6 °F 51.8 °F 94% 29.94 in 3.0 mi SW 6.9 mph - N/A   Overcast
10:00 AM 53.6 °F 51.8 °F 94% 29.93 in 3.0 mi SSW 5.8 mph - N/A   Overcast
11:00 AM 54 °F 51 °F 88% 29.90 in 4 mi Calm Calm - -   Mist
11:00 AM 53.6 °F 51.8 °F 94% 29.90 in 4.0 mi East 3.5 mph - N/A   Overcast
12:00 PM 57.2 °F 51.8 °F 82% 29.86 in 10.0 mi Calm Calm - N/A   Mostly Cloudy
1:00 PM 59.0 °F 51.8 °F 77% 29.85 in 30.0 mi West 3.5 mph - N/A   Mostly Cloudy
2:00 PM 59.0 °F 53.6 °F 82% 29.78 in 10.0 mi NNE 8.1 mph - N/A   Overcast
2:50 PM 57.2 °F 51.8 °F 82% 29.74 in 10.0 mi NNE 5.8 mph - N/A Rain Light Rain
3:00 PM 57.2 °F 51.8 °F 82% 29.74 in 8.0 mi NNE 4.6 mph - N/A Rain Light Rain
4:00 PM 55.4 °F 53.6 °F 94% 29.68 in 4.0 mi East 3.5 mph - N/A Rain Light Rain
4:12 PM 55.4 °F 53.6 °F 94% 29.66 in 2.0 mi ENE 5.8 mph - N/A Rain Rain
5:00 PM 54 °F 53 °F 95% 29.62 in 2 mi ENE 6.9 mph - - Rain Rain
5:00 PM 53.6 °F 53.6 °F 100% 29.62 in 2.0 mi East 8.1 mph - N/A Rain Rain
6:00 PM 53.6 °F 51.8 °F 94% 29.54 in 10.0 mi ENE 8.1 mph - N/A Rain Light Rain
7:00 PM 53.6 °F 51.8 °F 94% 29.51 in 3.0 mi NNE 5.8 mph - N/A Rain Rain
8:00 PM 53.6 °F 51.8 °F 94% 29.50 in 4.0 mi NW 6.9 mph - N/A Rain Rain
9:00 PM 53.6 °F 51.8 °F 94% 29.48 in 4.0 mi North 5.8 mph - N/A Rain Light Rain
10:00 PM 55.4 °F 55.4 °F 100% 29.49 in 8.0 mi Variable 2.3 mph - N/A Rain Light Rain
10:51 PM 59.0 °F 55.4 °F 88% 29.49 in 15.0 mi SSW 12.7 mph 18.4 mph N/A   Overcast
11:00 PM 58 °F 56 °F 90% 29.50 in 15 mi SSW 10.4 mph - - Rain Light Rain
11:00 PM 59.0 °F 55.4 °F 88% 29.50 in 15.0 mi South 9.2 mph - N/A   Mostly Cloudy